Location: Ward Pound Ridge Reservation
(41.2500°N, 73.6000°W)
Time: 10:41:01
(UTC-04:00)

ISS - Pass Details

Date: 13 October 2017
Orbit: 401 x 408 km, 51.6° (Epoch: 19 October)

Event Time Altitude Azimuth Distance (km) Brightness Sun altitude
Rises 18:42:00 0° 309° (NW) 2,324 0.8 -5.6°
Reaches altitude 10° 18:44:11 10° 318° (NW) 1,463 -0.5 -6.0°
Maximum altitude 18:47:15 36° 28° (NNE) 659 -3.0 -6.6°
Drops below altitude 10° 18:50:20 10° 97° (E) 1,461 -1.7 -7.2°
Enters shadow 18:50:31 - 98° (E) 1,537 -1.5 -7.2°
